Home   Weather   Mount Utchee   Past weeks
Flag for Australia

Past Weather in Mount Utchee, Queensland, Australia — Yesterday and Last 2 Weeks

Now
77 °F

Partly cloudy.


Feels Like: 79 °F
Forecast: 84 / 69 °F
Wind: 3 mph from Northwest

Location: Cairns Airport

Current Time: Oct 18, 2019 at 9:25:48 pm

Latest Report: Oct 18, 2019 at 9:00 pm


Visibility: N/A

Pressure: 29.98 "Hg

Humidity: 74%

Dew Point: 68 °F

Location of Mount UtcheeLocation

Past Weather in Mount Utchee — Graph

°F

Mount Utchee Temperature Yesterday

Maximum temperature yesterday: 84 °F (at 12:00 pm)
Minimum temperature yesterday: 70 °F (at 6:00 am)
Average temperature yesterday: 77 °F

High & Low Weather Summary for the Past Weeks

 TemperatureHumidityPressure
High84 °F (Oct 6, 1:00 pm)100% (Oct 9, 1:00 am)30.09 "Hg (Oct 9, 1:00 am)
Low63 °F (Oct 8, 6:00 am)42% (Oct 10, 4:00 pm)29.77 "Hg (Oct 12, 2:30 pm)
Average75 °F74%29.96 "Hg
* Reported Oct 3 8:00 pm — Oct 18 8:00 pm, Mount Utchee. Weather by CustomWeather, © 2019

Note: Actual official high and low records may vary slightly from our data, if they occured in-between our weather recording intervals... More about our weather records

Advertising

Mount Utchee Weather History for the Previous 24 Hours

Scroll right to see more
 ConditionsComfort  
Time TempWeatherWind HumidityBarometerVisibility
8:00 pm
Fri, Oct 18
77 °FMostly cloudy.5 mph74%29.95 "HgN/A
7:30 pm77 °FOvercast.3 mph74%29.95 "HgN/A
7:00 pm77 °FOvercast.3 mph74%29.95 "HgN/A
6:30 pm77 °FPassing clouds.2 mph74%29.95 "HgN/A
6:00 pm77 °FScattered clouds.3 mph74%29.92 "HgN/A
5:30 pm79 °FPartly sunny.5 mph70%29.92 "HgN/A
5:00 pm79 °FMostly cloudy.5 mph70%29.92 "HgN/A
4:30 pm79 °FBroken clouds.6 mph70%29.92 "HgN/A
4:00 pm81 °FMostly cloudy.8 mph66%29.92 "HgN/A
3:30 pm81 °FMore clouds than sun.8 mph66%29.92 "HgN/A
3:00 pm81 °FMostly cloudy.8 mph66%29.92 "HgN/A
2:30 pm84 °FMore clouds than sun.9 mph62%29.92 "HgN/A
2:00 pm82 °FBroken clouds.9 mph62%29.92 "HgN/A
1:30 pm82 °FPartly sunny.9 mph62%29.95 "HgN/A
1:00 pm84 °FPartly sunny.10 mph58%29.95 "HgN/A
12:00 pm82 °FScattered clouds.9 mph66%29.98 "HgN/A
11:30 am84 °FSunny.9 mph62%29.98 "HgN/A
11:00 am82 °FSunny.10 mph66%30.01 "HgN/A
10:30 am82 °FSunny.9 mph66%30.01 "HgN/A
10:00 am82 °FSunny.9 mph62%30.01 "HgN/A
9:30 am82 °FScattered clouds.7 mph58%30.01 "HgN/A
9:00 am81 °FScattered clouds.7 mph62%30.01 "HgN/A
8:30 am81 °FScattered clouds.3 mph66%30.01 "HgN/A
8:00 am81 °FSunny.3 mph70%30.01 "HgN/A
7:30 am79 °FSunny.1 mph74%30.01 "HgN/A
7:00 am77 °FSunny.No wind83%29.98 "HgN/A
6:30 am73 °FSunny.1 mph89%29.98 "HgN/A
6:00 am72 °FSunny.No wind88%29.98 "HgN/A
5:30 am72 °FPassing clouds.No wind94%29.95 "HgN/A
5:00 am72 °FPassing clouds.No wind88%29.95 "HgN/A
4:30 am73 °FPartly cloudy.No wind83%29.95 "HgN/A
4:00 am73 °FMostly cloudy.No wind89%29.95 "HgN/A
3:30 am73 °FPartly cloudy.1 mph83%29.95 "HgN/A
3:19 am73 °FPartly cloudy.1 mph83%29.95 "HgN/A
3:00 am73 °FMostly cloudy.No wind89%29.95 "HgN/A
2:30 am73 °FPartly cloudy.No wind89%29.95 "HgN/A
12:30 am73 °FClear.3 mph83%29.98 "HgN/A
12:00 am73 °FClear.3 mph83%29.98 "HgN/A
11:30 pm
Thu, Oct 17
75 °FClear.3 mph78%30.01 "HgN/A
11:00 pm73 °FClear.2 mph83%30.01 "HgN/A
10:30 pm73 °FPassing clouds.3 mph83%30.01 "HgN/A
10:00 pm73 °FPartly cloudy.No wind83%30.01 "HgN/A
9:30 pm75 °FPassing clouds.No wind78%30.01 "HgN/A
9:00 pm75 °FPassing clouds.No wind78%29.98 "HgN/A
Weather by CustomWeather, © 2019

See weather overview